Terminal Aerodrome Forecast
Issued by NWS

Home | Current Version | Previous Version | Text Only | Print | Product List | Glossary On
Versions: 1 2 3 4 5 6 7 8 9 10 11 12 13
127
FTUS46 KPDT 172336
TAFBDN
TAF
KBDN 172336Z 1800/1824 24010G20KT P6SM FEW070 SCT200
     FM180300 22008KT P6SM FEW070 SCT200
     FM180600 20005KT P6SM SCT050 BKN120
     FM181800 23010G18KT P6SM FEW060=

USA.gov is the U.S. government's official web portal to all federal, state and local government web resources and services.